Location: Cerbedi�res
(48.2182°N, 1.4849°W)
Time: 02:59:16
(UTC+00:00)

GP-B - Visible Passes

Search period start: 15 June 2021 00:00
Search period end: 25 June 2021 00:00
Orbit: 631 x 635 km, 89.8° (Epoch: 14 June)

Date Brightness Start Highest point End Pass type
(mag) Time Alt. Az. Time Alt. Az. Time Alt. Az.
15 Jun 3.0 00:25:09 10° N 00:29:38 86° E 00:31:16 39° S visible
15 Jun 5.4 02:04:43 10° NW 02:06:13 12° WNW 02:07:44 10° W visible
15 Jun 5.1 23:10:29 10° NE 23:13:30 18° ENE 23:15:26 14° ESE visible
16 Jun 3.5 00:46:49 10° N 00:51:09 53° W 00:52:52 32° SW visible
16 Jun 4.4 23:31:23 10° NNE 23:35:19 30° E 23:37:02 23° ESE visible
17 Jun 4.4 01:08:42 10° NNW 01:12:35 30° WNW 01:14:28 22° WSW visible
17 Jun 3.5 23:52:39 10° N 23:57:01 53° E 23:58:38 34° SE visible
18 Jun 5.1 01:30:56 10° NNW 01:33:55 18° WNW 01:36:05 13° WSW visible
18 Jun 5.5 22:39:13 10° NE 22:40:40 11° ENE 22:42:05 10° E visible
19 Jun 3.0 00:14:09 10° N 00:18:38 85° W 00:20:15 39° S visible
19 Jun 5.6 01:54:28 10° WNW 01:55:08 10° WNW 01:55:48 10° WNW visible
19 Jun 4.9 22:59:17 10° NNE 23:02:33 20° E 23:04:24 16° ESE visible
20 Jun 3.7 00:35:51 10° N 00:40:08 47° W 00:41:51 31° SW visible
20 Jun 4.2 23:20:17 10° NNE 23:24:20 33° E 23:26:01 25° SE visible
21 Jun 4.5 00:57:47 10° NNW 01:01:32 27° WNW 01:03:27 20° WSW visible
21 Jun 3.3 23:41:36 10° N 23:46:02 60° E 23:47:38 36° SSE visible
22 Jun 5.2 01:20:07 10° NW 01:22:50 16° WNW 01:25:04 12° WSW visible
22 Jun 5.4 22:27:43 10° NE 22:29:43 13° ENE 22:31:43 10° ESE visible
23 Jun 3.1 00:03:09 10° N 00:07:37 76° W 00:09:14 38° SSW visible
23 Jun 4.8 22:48:07 10° NNE 22:51:36 22° E 22:53:25 17° ESE visible
24 Jun 3.9 00:24:53 10° NNW 00:29:05 42° W 00:30:51 28° SW visible
24 Jun 4.0 23:09:12 10° NNE 23:13:22 37° E 23:15:02 27° SE visible
